Vertical_Velocity
1 1 1 1 1 1 0 0 1 1 1 1 1 1 1 0 -0 -0 -0 -0 0 0 -0 -1 -1 -1 -1 -1 -1 -1 -1 -1 -2 -2 -1 -1 -1 -1 -1 -1 -1 -1 -0 -1 -1 -1 -1 -1 -1 -1 -1 -1 -1 -2 -1 -1 -1 -1 -2 -2 -2 -1 -1 -1 -1 -1 -1 -1 -1
1 1 1 0 0 0 0 0 1 1 1 1 1 1 0 -0 -0 -1 -0 0 1 0 -0 -1 -1 -1 -1 -1 -1 -1 -1 -2 -2 -2 -2 -2 -1 -1 -1 -1 -1 -1 -1 -0 -1 -1 -1 -1 -1 -1 -2 -2 -2 -2 -2 -2 -1 -1 -1 -2 -2 -1 -1 -1 -1 -1 -0 -0 -1
1 1 1 0 0 0 0 1 1 1 1 1 1 0 -0 -0 -0 -0 0 1 1 0 -0 -1 -1 -1 -1 -1 -1 -1 -2 -2 -2 -2 -2 -2 -2 -2 -2 -1 -1 -1 -1 -1 -1 -1 -1 -1 -1 -1 -1 -1 -1 -1 -1 -1 -1 -1 -1 -1 -1 -1 -1 -1 -1 -1 -0 -0 -1
1 1 1 0 0 0 0 0 1 1 1 1 0 -0 -0 -0 -0 0 1 1 1 0 -0 -1 -1 -1 -1 -1 -2 -2 -2 -2 -2 -2 -2 -2 -2 -2 -2 -2 -1 -1 -1 -1 -1 -1 -1 -1 -1 -1 -1 -1 -1 -1 -1 -0 -1 -1 -1 -1 -1 -1 -1 -1 -1 -1 -0 -0 -1
1 0 0 0 -0 -0 -0 0 0 1 1 0 -0 -0 -0 -0 0 1 1 1 1 0 -0 -1 -1 -1 -1 -1 -2 -2 -2 -2 -2 -2 -2 -2 -2 -2 -2 -2 -1 -1 -1 -1 -1 -1 -1 -1 -1 -1 -1 -0 -0 -0 -0 -0 0 -0 -1 -1 -1 -1 -1 -1 -1 -1 -1 -0 -1
1 0 -0 -0 -0 -1 -1 -0 0 1 1 0 -0 -0 -0 0 1 1 1 1 0 -0 -1 -0 -1 -1 -1 -2 -2 -2 -2 -2 -2 -2 -3 -3 -3 -2 -2 -2 -2 -1 -1 -1 -1 -1 -1 -1 -1 -1 -1 -0 -1 -1 -1 -0 0 0 -0 -1 -2 -2 -2 -1 -1 -1 -1 -0 -0
0 0 -0 -0 -0 -0 -0 0 1 1 0 0 -0 -0 0 1 1 1 1 0 -0 -1 -1 -1 -1 -1 -2 -2 -2 -2 -2 -3 -3 -2 -2 -2 -3 -3 -2 -2 -2 -1 -1 -1 -1 -1 -1 -0 -0 -1 -1 -1 -1 -1 -1 -1 -0 -0 -0 -0 -1 -1 -2 -2 -2 -1 -1 -0 0
-0 0 0 -0 -0 -0 0 0 1 0 0 0 0 0 0 1 1 0 0 -0 -1 -1 -1 -1 -1 -1 -2 -2 -2 -2 -2 -2 -3 -3 -2 -2 -2 -2 -2 -2 -2 -1 -1 -1 -1 -1 -1 -1 -1 -0 -0 -1 -1 -1 -1 -1 -1 -0 -0 -0 -0 -0 -1 -2 -2 -2 -1 -1 0
0 0 0 -0 -0 0 0 0 0 0 0 0 0 1 1 1 1 0 -0 -1 -1 -1 -1 -1 -1 -1 -2 -2 -2 -2 -2 -2 -2 -2 -2 -2 -2 -2 -2 -2 -2 -2 -1 -1 -1 -0 -1 -1 -1 -1 -1 -0 -1 -1 -1 -1 -1 -1 -1 -1 -0 -0 -1 -2 -2 -2 -1 -1 -0
1 0 0 0 0 0 0 0 0 0 0 0 1 1 1 1 0 -0 -0 -1 -1 -1 -1 -1 -1 -2 -2 -2 -2 -3 -3 -3 -2 -2 -2 -2 -1 -1 -1 -1 -2 -2 -1 -1 -1 -0 -0 -1 -1 -1 -1 -1 -1 -1 -1 -1 -1 -1 -1 -1 -1 -0 0 -1 -1 -2 -1 -1 -0
1 1 0 0 0 0 0 0 0 1 1 0 1 1 1 0 -0 -1 -1 -1 -1 -1 -1 -1 -1 -2 -2 -2 -2 -2 -2 -2 -2 -2 -2 -1 -1 -1 -1 -1 -1 -1 -1 -1 -0 -0 -0 -0 -0 -0 -1 -1 -1 -1 -1 -1 -1 -1 -1 -1 -1 -0 0 0 -0 -1 -1 -1 -1
1 1 1 1 1 1 1 0 1 1 1 1 1 1 0 -0 -1 -1 -1 -1 -1 -1 -1 -1 -1 -2 -2 -2 -2 -2 -2 -2 -2 -2 -1 -1 -1 -1 -0 -0 -0 -0 -0 -1 -0 -0 -0 -0 0 0 0 -0 -1 -1 -1 -1 -1 -1 -1 -1 -0 -0 0 0 0 -0 -1 -1 -1
0 1 1 1 1 1 1 1 1 1 1 1 1 0 -0 -1 -1 -1 -1 -2 -2 -2 -2 -2 -2 -2 -2 -2 -2 -2 -2 -2 -2 -1 -1 -1 -1 -0 -0 -0 -0 -1 -1 -1 -1 -1 -1 -1 -0 0 1 0 -0 -1 -1 -1 -1 -1 -1 -0 0 0 0 0 -0 -0 -1 -1 -1
1 1 1 1 1 1 1 1 1 1 1 1 1 0 -0 -1 -1 -1 -1 -2 -2 -2 -2 -2 -2 -2 -1 -2 -2 -2 -2 -2 -1 -1 -1 -1 -0 -0 -0 -1 -0 -1 -1 -1 -1 -1 -1 -1 -1 -0 0 0 0 -0 -1 -1 -1 -1 -1 -1 -0 -0 -0 -0 -0 -1 -1 -1 -1
1 1 1 1 1 1 1 1 1 1 1 1 0 -0 -1 -1 -1 -1 -2 -2 -2 -2 -2 -2 -2 -2 -2 -1 -2 -2 -2 -2 -1 -1 -1 -1 -1 -0 -0 -0 -1 -1 -1 -1 -2 -2 -2 -1 -1 -1 -1 -0 -0 -0 -0 -0 -0 -1 -1 -1 -1 -1 -1 -1 -1 -1 -1 -2 -1
2 2 2 2 2 1 1 1 1 1 1 1 0 -0 -1 -1 -1 -1 -2 -2 -2 -2 -2 -1 -1 -2 -2 -2 -1 -1 -1 -2 -1 -1 -1 -1 -1 -1 -1 -1 -1 -1 -1 -1 -1 -2 -2 -2 -1 -1 -1 -1 -1 -0 0 0 0 -0 -1 -1 -2 -2 -2 -2 -2 -2 -2 -2 -2
2 2 2 2 2 1 1 0 0 0 0 0 0 -0 -0 -1 -1 -1 -1 -2 -2 -2 -1 -1 -1 -1 -2 -2 -2 -1 -1 -1 -1 -1 -0 -0 -0 -1 -1 -1 -1 -1 -1 -1 -1 -1 -1 -2 -1 -1 -1 -1 -1 -0 -0 0 0 -0 -1 -1 -1 -2 -2 -2 -2 -2 -2 -2 -2
3 3 3 2 2 1 0 0 0 0 0 0 0 0 -0 -1 -1 -1 -1 -1 -1 -1 -1 -2 -2 -1 -1 -2 -2 -2 -1 -1 -1 -1 -0 0 0 -0 -1 -1 -1 -1 -1 -1 -0 -0 -1 -1 -1 -1 -1 -1 -0 -0 -0 0 0 -0 -1 -1 -1 -1 -1 -2 -2 -2 -2 -2 -2
3 3 2 2 1 1 1 1 0 0 0 0 0 0 -0 -1 -1 -1 -1 -1 -1 -0 -1 -2 -2 -2 -1 -1 -1 -2 -2 -1 -1 -1 -1 -0 -0 -0 -0 -1 -1 -1 -1 -1 -1 -1 -1 -1 -1 -0 -0 -0 0 0 0 0 0 0 -0 -0 -1 -1 -1 -1 -1 -1 -2 -2 -2
2 2 2 1 1 1 1 1 1 0 0 1 1 0 -0 -1 -1 -1 -1 -1 -1 -1 -1 -1 -1 -2 -2 -1 -1 -2 -2 -2 -1 -1 -1 -1 -0 -0 -0 -0 -1 -1 -1 -1 -1 -1 -1 -1 -1 -0 -0 0 0 1 1 1 1 1 0 0 -0 -0 -1 -1 -1 -1 -1 -1 -1
2 1 1 1 1 1 1 1 1 1 1 1 0 -0 -1 -1 -1 -1 -1 -1 -1 -1 -1 -1 -1 -1 -2 -2 -2 -2 -2 -2 -1 -1 -1 -1 -1 -0 -0 -0 -0 -1 -1 -1 -1 -1 -1 -1 -1 -1 -0 0 0 1 1 1 1 1 1 1 0 -0 -1 -1 -1 -1 -1 -1 -1
2 2 2 2 2 1 1 1 1 1 1 0 -0 -1 -1 -1 -1 -1 -1 -1 -1 -1 -1 -1 -1 -1 -1 -2 -2 -2 -2 -2 -1 -1 -0 -1 -1 -1 -0 -0 0 -0 -0 -0 -1 -1 -1 -1 -1 -1 -0 0 1 1 1 1 1 1 1 1 1 0 -1 -1 -1 -1 -1 -1 -1
2 2 2 2 2 1 1 1 1 1 0 -0 -1 -1 -1 -1 -1 -0 -0 -0 -0 -0 -0 -1 -0 -1 -1 -1 -2 -2 -2 -2 -1 -1 -1 -0 -0 -1 -1 -0 0 0 -0 -0 -1 -1 -1 -1 -1 -0 -0 -0 0 1 1 1 0 0 -0 -0 0 0 -0 -1 -1 -1 -1 -0 -0
2 2 2 2 1 1 1 1 1 0 -0 -1 -1 -1 -1 -0 -0 -0 -0 -0 -0 -0 -0 -1 -1 -1 -1 -1 -1 -1 -1 -0 -1 -1 -1 -1 -1 -1 -0 -0 0 0 -0 -0 -1 -1 -1 -2 -2 -1 -1 -1 -0 0 1 1 -0 -1 -1 -1 -1 -1 -0 0 -0 -1 -1 -1 -0
2 2 2 1 1 1 1 1 0 -0 -0 -1 -0 -0 0 0 1 1 0 -0 -0 -0 -0 -0 -1 -1 -1 -1 -1 -0 1 1 1 -0 -1 -1 -1 -1 -0 -0 0 0 0 -0 -1 -1 -1 -2 -2 -2 -2 -1 -1 0 1 1 0 -1 -1 -2 -2 -2 -1 -0 1 0 -0 -1 -1
2 1 1 1 1 1 1 0 0 -0 -0 -0 0 1 1 1 1 1 0 -0 -0 -0 -0 -0 -1 -1 -1 -1 -1 -0 1 1 1 1 0 0 -0 -0 -0 -0 0 0 1 0 -0 -1 -1 -1 -2 -3 -3 -2 -1 -0 0 1 0 -0 -1 -2 -2 -2 -2 -2 -1 0 0 -0 -1
1 1 1 1 1 1 0 -0 -0 -0 -0 0 1 1 1 1 1 1 0 -1 -1 -0 0 0 -0 -1 -1 -1 -0 -0 0 0 1 1 1 1 1 0 0 0 1 1 1 0 0 -0 -0 -1 -1 -2 -2 -3 -2 -0 0 1 0 -0 -1 -1 -1 -2 -2 -2 -2 -1 -0 -0 -0
1 1 1 1 1 0 0 -0 -0 0 1 1 2 2 1 1 1 0 -1 -1 -0 -0 -0 -1 -1 -1 -1 -0 -0 -0 -0 0 1 1 1 1 1 0 0 0 0 0 0 0 0 -0 -0 -0 -0 -1 -1 -2 -2 -1 0 0 -0 -0 -0 -1 -1 -1 -1 -2 -2 -2 -1 -1 -0
1 1 1 1 1 0 -0 -0 0 1 1 2 2 2 1 1 0 -1 -1 -1 -0 -0 -1 -1 -2 -1 -0 -0 -1 -1 -0 -0 1 1 1 1 0 -0 -0 -0 -0 0 0 0 0 -0 -0 -0 -0 -1 -1 -2 -2 -1 -1 -0 -1 -1 -1 -0 -1 -1 -2 -2 -2 -2 -2 -2 -1
1 1 1 1 0 0 0 1 1 2 2 2 2 2 1 0 -0 -1 -0 -0 -0 -1 -1 -1 -1 -0 -0 -0 -0 -0 -0 -0 1 1 1 1 1 0 -1 -1 -0 -0 0 1 1 0 -0 -0 -0 -0 -1 -1 -1 -1 -1 -1 -1 -1 -1 -1 -1 -1 -2 -2 -2 -2 -2 -3 -2
1 1 1 1 0 1 1 2 2 3 2 2 2 1 0 -0 -0 -0 0 -0 -1 -1 -1 -0 0 -0 -0 -0 0 0 -0 -0 0 0 1 1 1 1 -0 -1 -1 -0 0 1 1 1 0 -0 -0 -1 -1 -1 -1 -1 -1 -1 -1 -0 -0 -0 -1 -1 -2 -2 -2 -2 -2 -2 -3
1 1 1 1 1 1 2 3 3 3 2 2 1 0 -0 -0 -0 0 0 -0 -1 -1 -1 -0 -0 -0 -0 -0 -0 -0 -0 -0 -0 0 0 1 1 1 0 -1 -1 -0 0 1 1 1 0 -0 -1 -1 -1 -2 -1 -1 -1 -1 -0 -0 0 0 -0 -1 -2 -2 -2 -1 -2 -2 -2
1 1 1 1 1 2 2 3 3 3 2 1 0 -0 -0 0 0 -0 -1 -1 -0 -0 0 0 0 0 0 -0 -0 -0 0 -0 -0 0 0 1 1 0 0 -0 -1 -1 0 1 1 1 0 -0 -1 -1 -2 -2 -1 -1 -1 -0 -0 0 0 1 0 -0 -1 -2 -1 -1 -1 -1 -1
1 1 1 2 2 2 3 3 3 2 1 -0 -1 -0 1 1 0 -1 -1 -1 0 1 1 1 1 1 1 1 1 1 0 0 -0 -0 -0 0 1 1 0 -0 -1 -1 -0 1 1 1 0 -1 -1 -2 -2 -2 -1 -1 -1 -1 -0 0 1 1 0 0 -0 -0 -0 -0 -0 -0 -1
1 1 2 2 3 3 3 2 1 0 -1 -1 -0 0 1 1 -0 -1 -0 0 0 0 0 1 1 1 1 1 1 1 1 0 0 -0 -1 -0 0 1 1 0 -0 -1 -0 -0 0 0 -0 -1 -2 -2 -2 -2 -1 -1 -1 -1 -0 -0 0 1 0 0 0 1 1 1 0 -0 -1
2 2 3 3 3 2 1 0 -1 -1 -1 0 0 0 -0 -1 -0 0 1 0 0 0 0 1 1 1 1 1 0 0 0 0 0 -0 -1 -1 0 1 1 1 0 -0 -0 0 0 -0 -1 -1 -2 -2 -2 -2 -1 -1 -1 -1 -0 -0 -0 0 0 -0 0 1 1 1 0 -1 -1
3 3 3 2 1 0 -1 -1 -1 -0 0 -0 -0 -0 -0 -0 0 0 0 1 1 0 0 1 1 1 1 0 -0 -1 -1 -1 -0 -0 -0 -0 -0 1 1 1 1 0 -0 -0 -0 -0 -1 -1 -2 -2 -3 -3 -2 -2 -2 -1 -1 -1 -0 -1 -0 -0 -0 -0 1 1 1 -1 -3
3 2 1 -0 -1 -1 -1 -0 0 0 -0 -1 -1 -0 0 1 1 1 1 1 1 1 0 0 0 1 1 1 -0 -1 -2 -2 -1 -0 -0 -1 -1 -0 0 1 1 0 -0 -1 -0 -0 -1 -1 -2 -2 -3 -4 -3 -3 -2 -2 -1 -1 -1 -1 -1 -0 0 -1 -1 -0 1 0 -2
1 -0 -1 -1 -1 -1 0 1 0 -0 -1 -1 -1 -0 0 1 1 1 1 2 2 1 1 0 0 0 1 1 1 -0 -1 -2 -2 -1 -1 -1 -1 -1 -1 -0 -0 -0 -1 -1 -1 -1 -1 -1 -1 -2 -3 -4 -4 -3 -3 -2 -2 -2 -2 -2 -2 -1 1 1 -2 -3 -2 1 1
-1 -1 -1 -0 1 1 1 -0 -1 -1 -0 0 0 0 0 1 1 1 1 2 2 1 1 1 0 -0 0 1 1 1 0 -1 -2 -2 -1 -1 -1 -1 -1 -1 -1 -1 -1 -1 -1 -1 -1 -1 -1 -2 -2 -3 -3 -3 -3 -3 -2 -2 -2 -3 -3 -3 -1 1 1 -1 -3 -3 1
-0 0 1 1 1 0 -1 -1 -1 -1 0 1 1 0 0 1 1 1 1 1 1 1 1 1 0 -0 -0 0 1 1 1 0 -1 -2 -2 -1 -1 -2 -2 -2 -1 -1 -1 -2 -1 -1 -1 -1 -1 -1 -1 -3 -3 -3 -3 -4 -4 -3 -3 -4 -4 -4 -4 -3 -0 0 -0 -3 -2
Height
3078 3079 3079 3080 3080 3081 3081 3081 3082 3082 3082 3082 3082 3082 3082 3082 3082 3082 3082 3081 3081 3080 3080 3079 3079 3078 3077 3076 3075 3074 3073 3072 3071 3069 3068 3068 3066 3065 3064 3063 3062 3061 3060 3059 3058 3056 3055 3053 3052 3051 3050 3048 3047 3045 3044 3043 3041 3039 3038 3037 3035 3033 3032 3030 3029 3027 3026 3024 3023
3077 3078 3078 3079 3079 3079 3080 3080 3080 3081 3081 3081 3081 3081 3081 3081 3081 3080 3080 3080 3080 3079 3079 3078 3078 3077 3076 3074 3073 3072 3071 3070 3069 3068 3067 3066 3065 3063 3063 3062 3060 3059 3058 3057 3055 3054 3053 3052 3050 3049 3048 3046 3044 3043 3042 3040 3039 3037 3036 3034 3033 3031 3029 3028 3026 3025 3023 3022 3020
3076 3077 3077 3078 3078 3078 3079 3079 3079 3080 3080 3080 3080 3080 3080 3080 3079 3079 3079 3078 3078 3078 3078 3077 3076 3075 3074 3073 3072 3070 3069 3068 3067 3066 3065 3064 3063 3062 3061 3060 3058 3057 3056 3055 3053 3052 3051 3049 3048 3047 3045 3044 3042 3041 3039 3038 3036 3035 3033 3032 3030 3028 3027 3025 3024 3022 3021 3019 3018
3075 3076 3076 3077 3077 3077 3078 3078 3078 3078 3078 3079 3078 3078 3078 3078 3078 3078 3078 3077 3077 3077 3076 3075 3074 3073 3072 3071 3070 3068 3067 3066 3065 3064 3063 3062 3061 3060 3059 3058 3057 3055 3054 3053 3051 3050 3048 3047 3046 3044 3043 3041 3040 3038 3037 3035 3034 3032 3031 3029 3028 3026 3024 3023 3021 3020 3018 3016 3015
3074 3075 3075 3076 3076 3076 3077 3077 3077 3077 3077 3077 3077 3077 3077 3077 3077 3077 3076 3076 3076 3075 3074 3074 3073 3072 3070 3069 3068 3067 3066 3064 3063 3063 3061 3060 3059 3058 3057 3056 3054 3053 3052 3050 3049 3048 3046 3045 3043 3042 3040 3039 3037 3036 3034 3033 3031 3030 3028 3027 3025 3023 3022 3020 3018 3017 3015 3014 3012
3073 3073 3074 3074 3075 3075 3075 3076 3076 3076 3076 3076 3076 3076 3076 3075 3075 3075 3075 3074 3074 3073 3073 3072 3071 3070 3068 3067 3066 3065 3064 3063 3062 3061 3060 3058 3057 3056 3055 3053 3052 3051 3050 3048 3047 3045 3044 3043 3041 3039 3038 3036 3035 3033 3032 3030 3029 3028 3026 3024 3023 3021 3019 3018 3016 3014 3013 3011 3009
3072 3073 3073 3073 3073 3074 3074 3074 3075 3075 3075 3075 3074 3074 3074 3074 3074 3074 3073 3073 3073 3072 3071 3070 3069 3068 3067 3065 3064 3063 3062 3061 3060 3059 3058 3057 3055 3054 3053 3051 3050 3049 3047 3046 3044 3043 3042 3040 3038 3037 3036 3034 3033 3031 3029 3028 3027 3025 3024 3022 3020 3019 3017 3015 3013 3012 3010 3008 3007
3071 3071 3072 3072 3073 3073 3073 3073 3073 3073 3073 3073 3073 3073 3073 3073 3073 3072 3072 3071 3071 3070 3069 3068 3067 3066 3065 3063 3063 3061 3060 3059 3058 3057 3056 3055 3053 3052 3051 3049 3048 3047 3045 3043 3042 3041 3039 3038 3036 3035 3033 3032 3030 3028 3027 3026 3024 3023 3021 3020 3018 3016 3014 3013 3011 3009 3007 3005 3003
3069 3070 3070 3071 3071 3072 3072 3072 3072 3072 3072 3072 3072 3072 3071 3071 3071 3071 3070 3069 3069 3068 3067 3066 3065 3064 3063 3062 3061 3059 3058 3057 3056 3055 3054 3053 3051 3050 3049 3047 3046 3044 3043 3041 3040 3038 3037 3035 3034 3032 3031 3029 3028 3026 3025 3023 3022 3020 3019 3017 3016 3014 3012 3010 3008 3006 3004 3002 3001
3068 3069 3069 3069 3070 3070 3071 3071 3071 3071 3071 3070 3070 3070 3070 3070 3069 3069 3068 3068 3067 3066 3065 3064 3063 3062 3061 3060 3059 3058 3057 3055 3054 3053 3052 3051 3049 3048 3047 3045 3043 3042 3041 3039 3038 3036 3035 3033 3032 3030 3028 3027 3026 3024 3023 3021 3019 3018 3016 3014 3013 3011 3009 3007 3005 3003 3001 2999 2997
3067 3068 3068 3068 3069 3069 3069 3069 3069 3069 3069 3069 3068 3068 3068 3068 3067 3067 3066 3065 3064 3064 3063 3062 3061 3060 3059 3058 3057 3056 3055 3053 3052 3051 3050 3049 3048 3046 3044 3043 3042 3040 3038 3037 3035 3034 3033 3031 3030 3028 3027 3025 3023 3022 3020 3018 3017 3015 3013 3012 3010 3008 3007 3004 3003 3000 2998 2996 2994
3066 3066 3067 3067 3068 3068 3068 3068 3068 3068 3068 3067 3067 3067 3066 3066 3065 3065 3064 3063 3063 3062 3061 3060 3059 3058 3057 3056 3055 3054 3053 3052 3050 3049 3048 3047 3045 3044 3043 3041 3039 3038 3036 3035 3033 3032 3030 3029 3027 3026 3024 3023 3021 3019 3018 3016 3014 3013 3011 3009 3008 3006 3004 3002 2999 2997 2995 2993 2991
3065 3065 3065 3066 3066 3066 3066 3066 3066 3066 3066 3065 3065 3065 3064 3064 3063 3063 3062 3061 3061 3060 3059 3058 3057 3056 3055 3054 3053 3052 3051 3050 3048 3047 3046 3045 3043 3042 3040 3039 3037 3036 3034 3032 3031 3029 3028 3026 3025 3023 3022 3020 3018 3017 3015 3013 3012 3010 3008 3006 3004 3003 3000 2998 2996 2994 2992 2989 2987
3063 3064 3064 3064 3065 3065 3065 3065 3064 3064 3064 3064 3063 3063 3063 3062 3061 3061 3060 3059 3059 3058 3057 3056 3055 3054 3053 3052 3051 3050 3049 3048 3047 3045 3044 3043 3041 3040 3038 3037 3035 3033 3032 3030 3028 3027 3025 3024 3022 3021 3019 3018 3016 3014 3013 3011 3009 3007 3005 3003 3001 2999 2997 2995 2993 2990 2988 2986 2984
3062 3063 3063 3063 3063 3063 3063 3063 3063 3063 3062 3062 3062 3061 3061 3060 3060 3059 3058 3058 3057 3056 3056 3055 3054 3053 3052 3050 3049 3048 3047 3046 3045 3043 3042 3041 3039 3038 3036 3034 3033 3031 3029 3028 3026 3024 3023 3021 3020 3018 3017 3015 3013 3012 3010 3008 3006 3004 3002 3000 2998 2996 2993 2991 2989 2987 2985 2983 2981
3061 3061 3062 3062 3062 3062 3062 3062 3061 3061 3061 3060 3060 3059 3059 3058 3058 3057 3057 3056 3055 3055 3054 3053 3052 3051 3050 3048 3047 3046 3045 3044 3043 3041 3040 3038 3037 3035 3034 3032 3031 3029 3027 3026 3024 3022 3020 3019 3017 3015 3014 3012 3010 3009 3007 3005 3003 3001 2999 2997 2995 2992 2990 2988 2986 2984 2982 2979 2978
3060 3060 3060 3060 3060 3060 3060 3060 3060 3059 3059 3059 3058 3058 3058 3057 3056 3056 3055 3054 3054 3053 3052 3051 3050 3049 3048 3047 3045 3044 3043 3042 3040 3039 3038 3036 3035 3033 3032 3030 3028 3027 3025 3023 3022 3020 3018 3016 3014 3013 3011 3009 3008 3006 3004 3002 3000 2998 2996 2994 2992 2989 2987 2985 2983 2981 2978 2976 2974
3058 3059 3059 3059 3059 3059 3058 3058 3058 3058 3058 3057 3057 3056 3056 3055 3055 3054 3053 3053 3052 3051 3050 3049 3048 3047 3046 3045 3043 3042 3041 3040 3038 3037 3035 3034 3032 3031 3029 3028 3026 3024 3023 3021 3019 3018 3016 3014 3012 3010 3008 3006 3005 3003 3001 2999 2997 2995 2993 2991 2989 2987 2984 2982 2980 2978 2975 2973 2971
3057 3057 3058 3058 3058 3057 3057 3057 3057 3056 3056 3056 3055 3055 3054 3054 3053 3053 3052 3051 3050 3049 3048 3048 3046 3045 3044 3043 3041 3040 3039 3038 3036 3034 3033 3032 3030 3028 3027 3025 3023 3022 3020 3018 3017 3015 3013 3011 3009 3007 3006 3004 3002 3000 2998 2996 2994 2993 2990 2988 2986 2984 2981 2979 2977 2974 2972 2970 2968
3056 3056 3056 3056 3056 3056 3056 3055 3055 3055 3055 3054 3054 3053 3053 3052 3052 3051 3050 3049 3048 3048 3047 3045 3044 3043 3042 3041 3039 3038 3037 3035 3033 3032 3030 3029 3028 3026 3024 3023 3021 3019 3018 3016 3014 3012 3010 3008 3006 3004 3003 3001 2999 2998 2996 2994 2992 2990 2988 2985 2983 2981 2978 2976 2974 2971 2969 2967 2964
3054 3054 3054 3055 3055 3054 3054 3054 3054 3053 3053 3053 3053 3052 3051 3051 3050 3049 3048 3048 3047 3046 3044 3043 3042 3041 3039 3038 3037 3036 3034 3033 3031 3029 3028 3026 3025 3023 3022 3020 3018 3017 3015 3013 3011 3009 3007 3005 3003 3002 3000 2998 2996 2995 2993 2991 2989 2987 2985 2983 2980 2978 2975 2973 2970 2968 2966 2963 2961
3053 3053 3053 3053 3053 3053 3053 3053 3053 3052 3052 3051 3051 3050 3050 3049 3048 3048 3047 3046 3045 3043 3042 3041 3040 3038 3037 3036 3035 3033 3032 3030 3028 3027 3025 3024 3022 3021 3019 3018 3016 3014 3012 3010 3008 3007 3004 3003 3001 2999 2997 2995 2993 2992 2990 2988 2986 2984 2982 2979 2977 2975 2972 2970 2967 2965 2962 2960 2958
3052 3052 3052 3052 3052 3052 3052 3051 3051 3051 3050 3050 3049 3048 3048 3047 3047 3046 3045 3044 3043 3042 3040 3039 3038 3036 3035 3034 3032 3031 3029 3028 3026 3024 3023 3021 3020 3018 3017 3015 3013 3011 3009 3008 3006 3004 3002 3000 2998 2996 2994 2993 2991 2989 2987 2985 2983 2981 2978 2976 2974 2971 2969 2966 2964 2961 2959 2956 2954
3050 3050 3051 3051 3051 3050 3050 3050 3049 3049 3048 3048 3048 3047 3046 3046 3045 3044 3043 3042 3041 3039 3038 3037 3036 3034 3033 3031 3030 3028 3027 3025 3024 3022 3021 3019 3018 3016 3014 3012 3010 3009 3007 3005 3003 3001 2999 2997 2995 2993 2991 2989 2988 2986 2984 2982 2979 2977 2975 2973 2970 2968 2966 2963 2961 2958 2956 2953 2950
3049 3049 3049 3049 3049 3049 3048 3048 3048 3047 3047 3046 3046 3045 3044 3044 3043 3042 3041 3039 3038 3037 3036 3035 3033 3032 3030 3029 3028 3026 3025 3023 3022 3020 3018 3017 3015 3013 3012 3010 3008 3006 3004 3002 3000 2998 2996 2994 2992 2990 2988 2986 2984 2983 2980 2978 2976 2974 2972 2969 2967 2964 2962 2960 2957 2955 2952 2950 2948
3048 3048 3048 3048 3048 3047 3047 3046 3046 3046 3045 3045 3044 3043 3043 3042 3041 3040 3038 3037 3036 3035 3034 3033 3031 3029 3028 3027 3025 3023 3022 3021 3019 3018 3016 3014 3013 3011 3009 3007 3005 3003 3002 3000 2998 2996 2994 2992 2990 2988 2985 2983 2981 2979 2978 2975 2973 2971 2969 2966 2963 2961 2959 2956 2954 2952 2949 2947 2944
3046 3046 3046 3046 3046 3045 3045 3045 3044 3044 3043 3043 3042 3042 3041 3040 3039 3038 3036 3035 3034 3033 3032 3030 3028 3027 3025 3024 3023 3021 3020 3018 3017 3015 3013 3012 3010 3008 3007 3005 3003 3001 2999 2998 2996 2994 2992 2990 2987 2985 2983 2980 2978 2976 2974 2973 2970 2968 2966 2963 2961 2958 2955 2953 2951 2948 2946 2944 2941
3045 3045 3045 3044 3044 3044 3043 3043 3043 3042 3042 3041 3040 3040 3039 3038 3036 3035 3034 3033 3032 3030 3029 3028 3026 3024 3023 3021 3020 3018 3017 3016 3014 3013 3011 3009 3008 3006 3004 3002 3000 2999 2997 2995 2993 2991 2989 2987 2985 2983 2980 2978 2975 2973 2972 2969 2967 2965 2963 2960 2958 2955 2952 2950 2948 2945 2943 2941 2939
3043 3043 3043 3043 3043 3042 3042 3042 3041 3041 3040 3039 3038 3038 3037 3035 3034 3033 3032 3031 3029 3028 3026 3025 3023 3022 3020 3019 3018 3016 3015 3013 3012 3010 3008 3007 3005 3003 3001 3000 2998 2996 2994 2993 2991 2989 2987 2984 2982 2980 2978 2975 2973 2970 2968 2966 2964 2962 2959 2957 2954 2952 2949 2947 2944 2942 2940 2938 2936
3042 3042 3041 3041 3041 3041 3040 3040 3039 3039 3038 3037 3037 3035 3034 3033 3032 3031 3030 3028 3027 3025 3024 3023 3021 3019 3018 3017 3015 3014 3012 3010 3009 3007 3006 3004 3003 3001 2999 2997 2995 2993 2992 2990 2988 2986 2984 2982 2979 2977 2975 2972 2970 2968 2965 2963 2961 2959 2957 2954 2952 2949 2946 2944 2942 2939 2937 2935 2933
3040 3040 3040 3040 3039 3039 3039 3038 3038 3037 3036 3035 3034 3033 3032 3031 3030 3028 3027 3026 3024 3023 3022 3020 3019 3017 3016 3014 3013 3011 3010 3008 3006 3005 3003 3002 3000 2998 2997 2995 2993 2991 2989 2988 2986 2983 2981 2979 2977 2974 2972 2969 2967 2965 2963 2960 2958 2956 2953 2951 2949 2946 2943 2941 2939 2937 2934 2932 2929
3038 3038 3038 3038 3038 3037 3037 3036 3036 3035 3034 3033 3032 3031 3030 3029 3028 3026 3025 3023 3022 3021 3019 3018 3016 3015 3013 3012 3010 3009 3007 3006 3004 3002 3001 2999 2998 2996 2994 2992 2990 2988 2987 2985 2983 2981 2978 2976 2974 2971 2969 2966 2964 2962 2959 2957 2955 2953 2951 2948 2946 2943 2941 2938 2936 2934 2931 2928 2926
3037 3037 3037 3037 3036 3035 3035 3034 3033 3033 3032 3031 3030 3029 3028 3026 3025 3024 3022 3021 3019 3018 3017 3016 3014 3013 3011 3010 3008 3007 3005 3003 3002 3000 2998 2997 2995 2993 2992 2990 2988 2986 2984 2982 2980 2978 2976 2973 2971 2968 2966 2963 2961 2959 2957 2954 2952 2950 2948 2946 2943 2941 2938 2936 2933 2931 2928 2926 2923
3036 3035 3035 3035 3034 3033 3033 3032 3032 3031 3030 3028 3028 3027 3025 3024 3023 3021 3020 3018 3017 3016 3015 3013 3012 3011 3009 3008 3006 3005 3003 3001 2999 2998 2996 2994 2993 2991 2989 2987 2985 2983 2981 2979 2977 2975 2973 2971 2968 2966 2963 2961 2958 2956 2954 2952 2949 2948 2945 2943 2940 2938 2935 2933 2930 2928 2925 2923 2920
3034 3033 3033 3033 3032 3032 3031 3030 3029 3028 3027 3026 3025 3024 3023 3022 3020 3019 3018 3016 3015 3014 3013 3011 3010 3008 3007 3005 3004 3002 3001 2999 2997 2995 2994 2992 2990 2988 2987 2985 2983 2981 2979 2977 2975 2973 2970 2968 2965 2963 2960 2958 2956 2953 2951 2949 2947 2944 2942 2940 2937 2935 2932 2930 2927 2925 2922 2919 2917
3032 3032 3031 3031 3030 3029 3029 3028 3027 3026 3025 3024 3023 3022 3020 3019 3018 3017 3016 3014 3013 3012 3010 3009 3008 3006 3005 3003 3001 3000 2998 2997 2995 2993 2991 2989 2988 2986 2984 2983 2980 2978 2976 2974 2972 2970 2968 2965 2963 2960 2958 2955 2953 2950 2948 2946 2944 2942 2939 2937 2934 2931 2929 2927 2924 2922 2919 2916 2913
3030 3030 3029 3029 3028 3027 3026 3026 3025 3024 3023 3022 3021 3019 3018 3017 3016 3015 3013 3012 3011 3009 3008 3007 3005 3004 3002 3001 2999 2997 2996 2994 2992 2990 2989 2987 2985 2983 2982 2980 2978 2976 2974 2971 2969 2967 2965 2962 2960 2957 2955 2952 2950 2948 2945 2943 2941 2938 2936 2933 2930 2928 2926 2923 2921 2918 2915 2913 2910
3028 3028 3027 3027 3026 3025 3024 3024 3023 3022 3021 3019 3018 3017 3016 3015 3014 3013 3011 3010 3009 3008 3006 3005 3003 3002 3000 2998 2997 2995 2993 2991 2990 2988 2986 2984 2983 2981 2979 2977 2975 2973 2971 2969 2966 2964 2962 2959 2957 2954 2952 2949 2947 2944 2942 2940 2938 2935 2933 2930 2927 2924 2922 2920 2918 2916 2912 2909 2907
3026 3026 3025 3025 3024 3023 3023 3022 3020 3019 3018 3017 3016 3015 3014 3013 3012 3011 3009 3008 3007 3006 3004 3003 3001 3000 2998 2997 2995 2993 2991 2989 2987 2985 2983 2982 2980 2978 2976 2974 2972 2970 2968 2966 2963 2961 2959 2957 2954 2952 2949 2946 2944 2942 2939 2937 2934 2932 2929 2926 2924 2922 2919 2917 2915 2913 2910 2907 2904
3024 3024 3023 3023 3022 3021 3020 3019 3018 3017 3016 3015 3014 3013 3012 3011 3009 3008 3007 3006 3005 3003 3002 3000 2999 2998 2996 2994 2993 2991 2989 2987 2985 2983 2981 2979 2977 2975 2973 2972 2969 2967 2965 2963 2961 2958 2956 2954 2952 2949 2946 2944 2941 2938 2936 2933 2931 2928 2926 2923 2921 2918 2916 2914 2911 2909 2907 2904 2902
3023 3023 3022 3021 3020 3019 3018 3017 3016 3015 3014 3013 3012 3011 3010 3009 3008 3006 3005 3004 3003 3001 3000 2998 2997 2995 2993 2992 2990 2989 2987 2985 2983 2981 2979 2977 2975 2973 2971 2969 2967 2965 2963 2960 2958 2956 2953 2951 2949 2947 2944 2941 2938 2936 2933 2931 2928 2925 2923 2920 2917 2915 2913 2911 2908 2906 2904 2902 2900